Time,TemperatureF,DewpointF,PressureIn,WindDirection,WindDirectionDegrees,WindSpeedMPH,WindSpeedGustMPH,Humidity,HourlyPrecipIn,Conditions,Clouds,dailyrainin,SoftwareType,DateUTC
2013-02-07 00:00:00,44.8,28.7,30.13,NE,45,0.0,1.3,53,0.00,,,0.00,WUHU216HW,2013-02-07 05:00:00,
2013-02-07 00:05:00,44.8,28.7,30.13,NNE,23,0.0,1.3,53,0.00,,,0.00,WUHU216HW,2013-02-07 05:05:00,
2013-02-07 00:10:00,44.6,28.5,30.13,NE,45,0.0,1.1,53,0.00,,,0.00,WUHU216HW,2013-02-07 05:10:00,
2013-02-07 00:15:00,44.6,28.5,30.13,NNE,23,0.0,0.4,53,0.00,,,0.00,WUHU216HW,2013-02-07 05:15:00,
2013-02-07 00:20:00,44.5,28.4,30.13,East,90,0.2,1.1,53,0.00,,,0.00,WUHU216HW,2013-02-07 05:20:00,
2013-02-07 00:25:00,44.3,28.2,30.13,SSE,158,0.9,1.1,53,0.00,,,0.00,WUHU216HW,2013-02-07 05:25:00,
2013-02-07 00:30:00,44.3,28.2,30.13,SSE,158,0.4,1.6,53,0.00,,,0.00,WUHU216HW,2013-02-07 05:30:00,
2013-02-07 00:35:00,44.1,28.0,30.13,ESE,113,0.4,1.6,53,0.00,,,0.00,WUHU216HW,2013-02-07 05:35:00,
2013-02-07 00:40:00,44.1,28.0,30.13,SE,135,0.2,1.8,53,0.00,,,0.00,WUHU216HW,2013-02-07 05:40:00,
2013-02-07 00:45:00,43.9,27.9,30.12,SE,135,0.2,1.8,53,0.00,,,0.00,WUHU216HW,2013-02-07 05:45:00,
2013-02-07 00:50:00,43.9,28.3,30.12,ESE,113,0.7,1.1,54,0.00,,,0.00,WUHU216HW,2013-02-07 05:50:00,
2013-02-07 00:55:00,43.7,28.2,30.11,SE,135,0.4,1.8,54,0.00,,,0.00,WUHU216HW,2013-02-07 05:55:00,
2013-02-07 01:00:00,43.6,28.0,30.12,SE,135,1.3,2.2,54,0.00,,,0.00,WUHU216HW,2013-02-07 06:00:00,
2013-02-07 01:05:00,43.6,28.0,30.12,SSE,158,1.6,2.2,54,0.00,,,0.00,WUHU216HW,2013-02-07 06:05:00,
2013-02-07 01:10:00,43.6,28.5,30.11,SE,135,1.6,2.5,55,0.00,,,0.00,WUHU216HW,2013-02-07 06:10:00,
2013-02-07 01:15:00,43.6,28.5,30.11,ESE,113,1.8,2.5,55,0.00,,,0.00,WUHU216HW,2013-02-07 06:15:00,
2013-02-07 01:20:00,43.4,28.3,30.11,SE,135,0.9,2.9,55,0.00,,,0.00,WUHU216HW,2013-02-07 06:20:00,
2013-02-07 01:25:00,43.4,28.3,30.11,SSE,158,1.1,2.9,55,0.00,,,0.00,WUHU216HW,2013-02-07 06:25:00,
2013-02-07 01:30:00,43.4,28.3,30.11,SE,135,1.8,2.5,55,0.00,,,0.00,WUHU216HW,2013-02-07 06:30:00,
2013-02-07 01:35:00,43.4,28.3,30.10,SE,135,1.3,2.5,55,0.00,,,0.00,WUHU216HW,2013-02-07 06:35:00,
2013-02-07 01:40:00,43.4,28.3,30.10,NNE,23,0.2,1.8,55,0.00,,,0.00,WUHU216HW,2013-02-07 06:40:00,
2013-02-07 01:45:00,43.4,28.3,30.10,SSW,203,0.0,1.3,55,0.00,,,0.00,WUHU216HW,2013-02-07 06:45:00,
2013-02-07 01:50:00,43.4,28.3,30.11,ENE,68,1.8,1.8,55,0.00,,,0.00,WUHU216HW,2013-02-07 06:50:00,
2013-02-07 01:56:00,43.4,28.3,30.11,NNE,23,1.3,2.0,55,0.00,,,0.00,WUHU216HW,2013-02-07 06:56:00,
2013-02-07 02:01:00,43.4,28.3,30.11,NNE,23,0.2,2.0,55,0.00,,,0.00,WUHU216HW,2013-02-07 07:01:00,
2013-02-07 02:06:00,43.4,28.3,30.11,East,90,0.7,2.5,55,0.00,,,0.00,WUHU216HW,2013-02-07 07:06:00,
2013-02-07 02:11:00,43.4,28.3,30.11,SE,135,1.1,2.5,55,0.00,,,0.00,WUHU216HW,2013-02-07 07:11:00,
2013-02-07 02:16:00,43.4,28.3,30.11,SE,135,0.4,1.6,55,0.00,,,0.00,WUHU216HW,2013-02-07 07:16:00,
2013-02-07 02:21:00,43.2,28.1,30.11,SE,135,0.4,2.2,55,0.00,,,0.00,WUHU216HW,2013-02-07 07:21:00,
2013-02-07 02:26:00,43.2,28.1,30.11,SSE,158,1.6,2.2,55,0.00,,,0.00,WUHU216HW,2013-02-07 07:26:00,
2013-02-07 02:31:00,43.0,28.4,30.11,East,90,0.2,2.2,56,0.00,,,0.00,WUHU216HW,2013-02-07 07:31:00,
2013-02-07 02:36:00,42.8,28.2,30.10,SE,135,0.7,2.2,56,0.00,,,0.00,WUHU216HW,2013-02-07 07:36:00,
2013-02-07 02:41:00,42.8,28.2,30.10,SSE,158,1.1,2.2,56,0.00,,,0.00,WUHU216HW,2013-02-07 07:41:00,
2013-02-07 02:46:00,42.7,28.0,30.10,SE,135,0.0,2.2,56,0.00,,,0.00,WUHU216HW,2013-02-07 07:46:00,
2013-02-07 02:51:00,42.5,28.3,30.11,SE,135,1.3,2.5,57,0.00,,,0.00,WUHU216HW,2013-02-07 07:51:00,
2013-02-07 02:56:00,42.5,28.3,30.11,NW,315,0.0,2.5,57,0.00,,,0.00,WUHU216HW,2013-02-07 07:56:00,
2013-02-07 03:01:00,42.5,28.3,30.11,NE,45,0.0,2.2,57,0.00,,,0.00,WUHU216HW,2013-02-07 08:01:00,
2013-02-07 03:06:00,42.5,28.3,30.11,SSE,158,0.0,2.2,57,0.00,,,0.00,WUHU216HW,2013-02-07 08:06:00,
2013-02-07 03:11:00,42.5,28.3,30.11,NE,45,0.4,0.9,57,0.00,,,0.00,WUHU216HW,2013-02-07 08:11:00,
2013-02-07 03:16:00,42.3,28.1,30.12,NNE,23,0.0,0.9,57,0.00,,,0.00,WUHU216HW,2013-02-07 08:16:00,
2013-02-07 03:21:00,42.3,28.1,30.12,ESE,113,0.4,0.9,57,0.00,,,0.00,WUHU216HW,2013-02-07 08:21:00,
2013-02-07 03:26:00,42.3,28.5,30.12,ENE,68,0.0,0.4,58,0.00,,,0.00,WUHU216HW,2013-02-07 08:26:00,
2013-02-07 03:31:00,42.1,28.4,30.12,SE,135,0.0,0.4,58,0.00,,,0.00,WUHU216HW,2013-02-07 08:31:00,
2013-02-07 03:36:00,42.1,28.4,30.12,SE,135,0.0,0.2,58,0.00,,,0.00,WUHU216HW,2013-02-07 08:36:00,
2013-02-07 03:41:00,42.1,28.4,30.12,SE,135,0.4,1.1,58,0.00,,,0.00,WUHU216HW,2013-02-07 08:41:00,
2013-02-07 03:46:00,41.9,28.2,30.12,SSE,158,0.4,1.1,58,0.00,,,0.00,WUHU216HW,2013-02-07 08:46:00,
2013-02-07 03:51:00,41.9,28.2,30.12,SE,135,0.9,2.5,58,0.00,,,0.00,WUHU216HW,2013-02-07 08:51:00,
2013-02-07 03:56:00,41.9,28.2,30.13,SE,135,1.3,2.5,58,0.00,,,0.00,WUHU216HW,2013-02-07 08:56:00,
2013-02-07 04:01:00,41.8,28.0,30.13,ESE,113,0.4,2.5,58,0.00,,,0.00,WUHU216HW,2013-02-07 09:01:00,
2013-02-07 04:06:00,41.8,28.0,30.13,ESE,113,0.4,1.8,58,0.00,,,0.00,WUHU216HW,2013-02-07 09:06:00,
2013-02-07 04:11:00,41.6,28.3,30.13,ESE,113,0.0,1.6,59,0.00,,,0.00,WUHU216HW,2013-02-07 09:11:00,
2013-02-07 04:16:00,41.6,28.3,30.13,SE,135,0.7,1.1,59,0.00,,,0.00,WUHU216HW,2013-02-07 09:16:00,
2013-02-07 04:21:00,41.6,28.3,30.13,SE,135,1.8,1.8,59,0.00,,,0.00,WUHU216HW,2013-02-07 09:21:00,
2013-02-07 04:26:00,41.6,28.3,30.13,SE,135,1.1,1.8,59,0.00,,,0.00,WUHU216HW,2013-02-07 09:26:00,
2013-02-07 04:31:00,41.6,28.3,30.13,SE,135,1.3,1.8,59,0.00,,,0.00,WUHU216HW,2013-02-07 09:31:00,
2013-02-07 04:36:00,41.6,28.3,30.13,SE,135,1.1,1.8,59,0.00,,,0.00,WUHU216HW,2013-02-07 09:36:00,
2013-02-07 04:41:00,41.6,28.3,30.13,SE,135,2.5,2.5,59,0.00,,,0.00,WUHU216HW,2013-02-07 09:41:00,
2013-02-07 04:46:00,41.6,28.3,30.13,SE,135,3.1,4.3,59,0.00,,,0.00,WUHU216HW,2013-02-07 09:46:00,
2013-02-07 04:51:00,41.6,28.3,30.13,SE,135,2.0,4.3,59,0.00,,,0.00,WUHU216HW,2013-02-07 09:51:00,
2013-02-07 04:56:00,41.6,28.3,30.13,SE,135,1.6,3.6,59,0.00,,,0.00,WUHU216HW,2013-02-07 09:56:00,
2013-02-07 05:01:00,41.6,28.3,30.13,SE,135,0.4,2.7,59,0.00,,,0.00,WUHU216HW,2013-02-07 10:01:00,
2013-02-07 05:06:00,41.6,28.3,30.12,SE,135,0.0,2.0,59,0.00,,,0.00,WUHU216HW,2013-02-07 10:06:00,
2013-02-07 05:11:00,41.6,28.3,30.13,NNE,23,1.1,1.8,59,0.00,,,0.00,WUHU216HW,2013-02-07 10:11:00,
2013-02-07 05:16:00,41.8,28.4,30.12,NE,45,0.4,2.5,59,0.00,,,0.00,WUHU216HW,2013-02-07 10:16:00,
2013-02-07 05:21:00,41.8,28.4,30.12,NE,45,0.0,2.5,59,0.00,,,0.00,WUHU216HW,2013-02-07 10:21:00,
2013-02-07 05:26:00,41.8,28.4,30.12,NNE,23,0.0,1.8,59,0.00,,,0.00,WUHU216HW,2013-02-07 10:26:00,
2013-02-07 05:31:00,41.9,28.6,30.12,NE,45,0.4,1.8,59,0.00,,,0.00,WUHU216HW,2013-02-07 10:31:00,
2013-02-07 05:36:00,41.9,28.2,30.12,NE,45,0.4,1.3,58,0.00,,,0.00,WUHU216HW,2013-02-07 10:36:00,
2013-02-07 05:41:00,41.9,28.2,30.12,ESE,113,0.4,1.1,58,0.00,,,0.00,WUHU216HW,2013-02-07 10:41:00,
2013-02-07 05:46:00,42.1,28.4,30.12,ESE,113,0.0,1.6,58,0.00,,,0.00,WUHU216HW,2013-02-07 10:46:00,
2013-02-07 05:51:00,42.1,28.4,30.12,SE,135,0.0,1.6,58,0.00,,,0.00,WUHU216HW,2013-02-07 10:51:00,
2013-02-07 05:56:00,42.1,28.4,30.12,NE,45,0.4,0.9,58,0.00,,,0.00,WUHU216HW,2013-02-07 10:56:00,
2013-02-07 06:01:00,42.1,28.4,30.12,NE,45,0.0,1.1,58,0.00,,,0.00,WUHU216HW,2013-02-07 11:01:00,
2013-02-07 06:06:00,42.1,28.4,30.12,ENE,68,0.2,1.1,58,0.00,,,0.00,WUHU216HW,2013-02-07 11:06:00,
2013-02-07 06:11:00,42.1,28.4,30.12,East,90,0.0,0.4,58,0.00,,,0.00,WUHU216HW,2013-02-07 11:11:00,
2013-02-07 06:16:00,42.1,28.4,30.12,East,90,0.0,0.4,58,0.00,,,0.00,WUHU216HW,2013-02-07 11:16:00,
2013-02-07 06:21:00,41.9,28.2,30.12,NNE,23,0.0,0.0,58,0.00,,,0.00,WUHU216HW,2013-02-07 11:21:00,
2013-02-07 06:26:00,41.8,28.0,30.13,NNE,23,0.0,0.0,58,0.00,,,0.00,WUHU216HW,2013-02-07 11:26:00,
2013-02-07 06:31:00,41.8,28.4,30.12,NNE,23,0.0,0.0,59,0.00,,,0.00,WUHU216HW,2013-02-07 11:31:00,
2013-02-07 06:36:00,41.6,28.3,30.12,SE,135,0.4,1.6,59,0.00,,,0.00,WUHU216HW,2013-02-07 11:36:00,
2013-02-07 06:41:00,41.6,28.3,30.12,SE,135,1.3,2.0,59,0.00,,,0.00,WUHU216HW,2013-02-07 11:41:00,
2013-02-07 06:46:00,41.8,28.4,30.12,ENE,68,2.2,2.2,59,0.00,,,0.00,WUHU216HW,2013-02-07 11:46:00,
2013-02-07 06:51:00,41.9,28.6,30.12,SE,135,2.2,2.7,59,0.00,,,0.00,WUHU216HW,2013-02-07 11:51:00,
2013-02-07 06:56:00,42.1,28.8,30.12,SE,135,2.5,3.4,59,0.00,,,0.00,WUHU216HW,2013-02-07 11:56:00,
2013-02-07 07:01:00,42.1,28.8,30.12,SE,135,0.4,3.4,59,0.00,,,0.00,WUHU216HW,2013-02-07 12:01:00,
2013-02-07 07:06:00,42.1,28.8,30.12,SSE,158,0.9,3.1,59,0.00,,,0.00,WUHU216HW,2013-02-07 12:06:00,
2013-02-07 07:11:00,42.1,28.8,30.12,ESE,113,2.2,2.9,59,0.00,,,0.00,WUHU216HW,2013-02-07 12:11:00,
2013-02-07 07:16:00,42.1,28.8,30.12,ENE,68,1.1,2.9,59,0.00,,,0.00,WUHU216HW,2013-02-07 12:16:00,
2013-02-07 07:21:00,42.1,28.4,30.12,SSE,158,0.7,2.9,58,0.00,,,0.00,WUHU216HW,2013-02-07 12:21:00,
2013-02-07 07:26:00,42.1,28.4,30.12,ESE,113,0.9,2.9,58,0.00,,,0.00,WUHU216HW,2013-02-07 12:26:00,
2013-02-07 07:31:00,42.3,28.5,30.12,ESE,113,0.2,2.2,58,0.00,,,0.00,WUHU216HW,2013-02-07 12:31:00,
2013-02-07 07:36:00,42.3,28.5,30.12,ENE,68,0.4,1.1,58,0.00,,,0.00,WUHU216HW,2013-02-07 12:36:00,
2013-02-07 07:41:00,42.3,28.5,30.12,East,90,0.0,1.8,58,0.00,,,0.00,WUHU216HW,2013-02-07 12:41:00,
2013-02-07 07:46:00,42.5,28.7,30.12,SE,135,0.4,1.8,58,0.00,,,0.00,WUHU216HW,2013-02-07 12:46:00,
2013-02-07 07:51:00,42.5,28.7,30.13,NE,45,0.2,1.3,58,0.00,,,0.00,WUHU216HW,2013-02-07 12:51:00,
2013-02-07 07:56:00,42.7,28.9,30.12,East,90,1.8,1.8,58,0.00,,,0.00,WUHU216HW,2013-02-07 12:56:00,
2013-02-07 08:01:00,42.7,28.5,30.12,East,90,0.9,2.5,57,0.00,,,0.00,WUHU216HW,2013-02-07 13:01:00,
2013-02-07 08:06:00,42.8,29.0,30.12,SSE,158,0.4,2.7,58,0.00,,,0.00,WUHU216HW,2013-02-07 13:06:00,
2013-02-07 08:11:00,42.8,28.6,30.12,SSE,158,2.5,2.7,57,0.00,,,0.00,WUHU216HW,2013-02-07 13:11:00,
2013-02-07 08:16:00,42.8,28.6,30.12,SE,135,0.2,2.9,57,0.00,,,0.00,WUHU216HW,2013-02-07 13:16:00,
2013-02-07 08:21:00,42.8,29.0,30.12,East,90,0.2,2.9,58,0.00,,,0.00,WUHU216HW,2013-02-07 13:21:00,
2013-02-07 08:26:00,42.8,28.6,30.12,SE,135,1.1,1.6,57,0.00,,,0.00,WUHU216HW,2013-02-07 13:26:00,
2013-02-07 08:31:00,43.2,28.9,30.12,South,180,0.4,1.8,57,0.00,,,0.00,WUHU216HW,2013-02-07 13:31:00,
2013-02-07 08:36:00,43.2,28.9,30.12,South,180,2.2,2.2,57,0.00,,,0.00,WUHU216HW,2013-02-07 13:36:00,
2013-02-07 08:41:00,43.2,28.9,30.12,NNE,23,0.7,2.5,57,0.00,,,0.00,WUHU216HW,2013-02-07 13:41:00,
2013-02-07 08:46:00,43.4,29.1,30.11,East,90,1.8,2.7,57,0.00,,,0.00,WUHU216HW,2013-02-07 13:46:00,
2013-02-07 08:51:00,43.6,29.3,30.11,SSE,158,1.6,2.7,57,0.00,,,0.00,WUHU216HW,2013-02-07 13:51:00,
2013-02-07 08:56:00,43.6,29.3,30.11,SSE,158,1.8,2.7,57,0.00,,,0.00,WUHU216HW,2013-02-07 13:56:00,
2013-02-07 09:01:00,43.6,29.3,30.11,ESE,113,1.8,2.7,57,0.00,,,0.00,WUHU216HW,2013-02-07 14:01:00,
2013-02-07 09:06:00,43.7,29.4,30.11,SE,135,0.4,2.7,57,0.00,,,0.00,WUHU216HW,2013-02-07 14:06:00,
2013-02-07 09:11:00,43.9,29.6,30.11,South,180,0.4,3.4,57,0.00,,,0.00,WUHU216HW,2013-02-07 14:11:00,
2013-02-07 09:16:00,44.3,30.0,30.11,SE,135,2.5,4.0,57,0.00,,,0.00,WUHU216HW,2013-02-07 14:16:00,
2013-02-07 09:21:00,44.3,30.0,30.11,SE,135,1.8,4.0,57,0.00,,,0.00,WUHU216HW,2013-02-07 14:21:00,
2013-02-07 09:26:00,44.5,30.2,30.11,East,90,2.5,4.3,57,0.00,,,0.00,WUHU216HW,2013-02-07 14:26:00,
2013-02-07 09:31:00,44.6,30.3,30.11,ENE,68,1.8,4.3,57,0.00,,,0.00,WUHU216HW,2013-02-07 14:31:00,
2013-02-07 09:36:00,44.8,30.5,30.11,SE,135,2.9,3.4,57,0.00,,,0.00,WUHU216HW,2013-02-07 14:36:00,
2013-02-07 09:41:00,45.0,30.7,30.11,SSE,158,2.0,3.4,57,0.00,,,0.00,WUHU216HW,2013-02-07 14:41:00,
2013-02-07 09:46:00,45.2,30.8,30.11,NNE,23,0.4,3.4,57,0.00,,,0.00,WUHU216HW,2013-02-07 14:46:00,
2013-02-07 09:51:00,45.4,31.0,30.11,SSW,203,0.4,3.4,57,0.00,,,0.00,WUHU216HW,2013-02-07 14:51:00,
2013-02-07 09:57:00,45.5,31.1,30.11,NE,45,0.2,1.8,57,0.00,,,0.00,WUHU216HW,2013-02-07 14:57:00,
2013-02-07 10:02:00,45.9,31.5,30.11,NW,315,0.9,2.0,57,0.00,,,0.00,WUHU216HW,2013-02-07 15:02:00,
2013-02-07 10:07:00,46.1,31.6,30.10,NW,315,0.2,2.0,57,0.00,,,0.00,WUHU216HW,2013-02-07 15:07:00,
2013-02-07 10:12:00,46.4,32.0,30.10,SSE,158,2.7,2.7,57,0.00,,,0.00,WUHU216HW,2013-02-07 15:12:00,
2013-02-07 10:17:00,46.6,32.1,30.10,SE,135,0.2,2.7,57,0.00,,,0.00,WUHU216HW,2013-02-07 15:17:00,
2013-02-07 10:22:00,47.0,32.1,30.10,NE,45,2.0,3.4,56,0.00,,,0.00,WUHU216HW,2013-02-07 15:22:00,
2013-02-07 10:27:00,47.2,32.2,30.10,SE,135,3.8,3.8,56,0.00,,,0.00,WUHU216HW,2013-02-07 15:27:00,
2013-02-07 10:32:00,47.2,32.2,30.09,NW,315,0.7,3.8,56,0.00,,,0.00,WUHU216HW,2013-02-07 15:32:00,
2013-02-07 10:37:00,47.5,32.6,30.09,SE,135,1.8,3.6,56,0.00,,,0.00,WUHU216HW,2013-02-07 15:37:00,
2013-02-07 10:42:00,47.7,32.7,30.09,SSE,158,1.1,3.1,56,0.00,,,0.00,WUHU216HW,2013-02-07 15:42:00,
2013-02-07 10:47:00,48.1,33.0,30.09,ESE,113,2.0,3.4,56,0.00,,,0.00,WUHU216HW,2013-02-07 15:47:00,
2013-02-07 10:52:00,48.4,33.4,30.10,SE,135,3.8,3.8,56,0.00,,,0.00,WUHU216HW,2013-02-07 15:52:00,
2013-02-07 10:57:00,48.8,33.3,30.10,SSE,158,1.8,3.8,55,0.00,,,0.00,WUHU216HW,2013-02-07 15:57:00,
2013-02-07 11:02:00,49.1,33.7,30.09,SE,135,1.8,3.8,55,0.00,,,0.00,WUHU216HW,2013-02-07 16:02:00,
2013-02-07 11:07:00,49.3,33.8,30.09,SE,135,1.1,3.4,55,0.00,,,0.00,WUHU216HW,2013-02-07 16:07:00,
2013-02-07 11:12:00,49.7,34.1,30.09,West,270,1.8,3.4,55,0.00,,,0.00,WUHU216HW,2013-02-07 16:12:00,
2013-02-07 11:17:00,50.0,34.5,30.09,SSW,203,1.8,3.4,55,0.00,,,0.00,WUHU216HW,2013-02-07 16:17:00,
2013-02-07 11:22:00,50.4,34.8,30.08,ESE,113,4.5,4.5,55,0.00,,,0.00,WUHU216HW,2013-02-07 16:22:00,
2013-02-07 11:27:00,50.8,34.7,30.08,SSW,203,0.7,5.6,54,0.00,,,0.00,WUHU216HW,2013-02-07 16:27:00,
2013-02-07 11:32:00,51.3,34.8,30.08,SSE,158,3.4,5.6,53,0.00,,,0.00,WUHU216HW,2013-02-07 16:32:00,
2013-02-07 11:37:00,51.5,34.8,30.07,SSE,158,1.6,4.7,53,0.00,,,0.00,WUHU216HW,2013-02-07 16:37:00,
2013-02-07 11:42:00,51.8,35.2,30.07,SSE,158,4.0,5.1,53,0.00,,,0.00,WUHU216HW,2013-02-07 16:42:00,
2013-02-07 11:47:00,52.0,35.4,30.07,SE,135,2.0,5.1,53,0.00,,,0.00,WUHU216HW,2013-02-07 16:47:00,
2013-02-07 11:52:00,52.4,35.3,30.06,NNE,23,1.6,4.0,52,0.00,,,0.00,WUHU216HW,2013-02-07 16:52:00,
2013-02-07 11:57:00,52.7,35.6,30.06,ESE,113,0.7,3.1,52,0.00,,,0.00,WUHU216HW,2013-02-07 16:57:00,
2013-02-07 12:02:00,52.9,35.7,30.06,NNE,23,1.3,2.9,52,0.00,,,0.00,WUHU216HW,2013-02-07 17:02:00,
2013-02-07 12:07:00,53.3,36.1,30.06,WSW,248,0.7,2.5,52,0.00,,,0.00,WUHU216HW,2013-02-07 17:07:00,
2013-02-07 12:12:00,53.5,36.3,30.05,NE,45,2.9,2.9,52,0.00,,,0.00,WUHU216HW,2013-02-07 17:12:00,
2013-02-07 12:17:00,53.6,36.4,30.05,ENE,68,1.8,4.0,52,0.00,,,0.00,WUHU216HW,2013-02-07 17:17:00,
2013-02-07 12:22:00,53.8,36.5,30.05,SSW,203,0.0,4.0,52,0.00,,,0.00,WUHU216HW,2013-02-07 17:22:00,
2013-02-07 12:27:00,54.2,36.5,30.05,South,180,0.9,3.4,51,0.00,,,0.00,WUHU216HW,2013-02-07 17:27:00,
2013-02-07 12:32:00,54.7,36.9,30.04,SSE,158,1.1,4.9,51,0.00,,,0.00,WUHU216HW,2013-02-07 17:32:00,
2013-02-07 12:37:00,55.1,37.3,30.05,WNW,293,0.2,4.9,51,0.00,,,0.00,WUHU216HW,2013-02-07 17:37:00,
2013-02-07 12:42:00,55.4,37.5,30.04,NE,45,1.1,3.1,51,0.00,,,0.00,WUHU216HW,2013-02-07 17:42:00,
2013-02-07 12:47:00,55.6,37.3,30.04,SSE,158,1.8,3.4,50,0.00,,,0.00,WUHU216HW,2013-02-07 17:47:00,
2013-02-07 12:52:00,55.8,37.4,30.03,SE,135,1.1,3.8,50,0.00,,,0.00,WUHU216HW,2013-02-07 17:52:00,
2013-02-07 12:57:00,56.2,37.8,30.03,South,180,1.3,4.7,50,0.00,,,0.00,WUHU216HW,2013-02-07 17:57:00,
2013-02-07 13:02:00,56.3,38.4,30.03,SSE,158,3.6,4.7,51,0.00,,,0.00,WUHU216HW,2013-02-07 18:02:00,
2013-02-07 13:07:00,56.5,38.2,30.02,SSE,158,1.3,4.7,50,0.00,,,0.00,WUHU216HW,2013-02-07 18:07:00,
2013-02-07 13:12:00,56.5,38.2,30.02,East,90,0.4,4.7,50,0.00,,,0.00,WUHU216HW,2013-02-07 18:12:00,
2013-02-07 13:17:00,56.5,38.2,30.02,SE,135,3.1,3.1,50,0.00,,,0.00,WUHU216HW,2013-02-07 18:17:00,
2013-02-07 13:22:00,56.5,38.2,30.01,SSE,158,1.8,4.7,50,0.00,,,0.00,WUHU216HW,2013-02-07 18:22:00,
2013-02-07 13:27:00,56.5,38.2,30.01,West,270,0.7,4.7,50,0.00,,,0.00,WUHU216HW,2013-02-07 18:27:00,
2013-02-07 13:32:00,56.3,38.0,30.01,ENE,68,0.2,3.1,50,0.00,,,0.00,WUHU216HW,2013-02-07 18:32:00,
2013-02-07 13:37:00,56.2,37.8,30.01,ENE,68,2.5,3.4,50,0.00,,,0.00,WUHU216HW,2013-02-07 18:37:00,
2013-02-07 13:42:00,56.2,37.8,30.01,East,90,0.4,3.4,50,0.00,,,0.00,WUHU216HW,2013-02-07 18:42:00,
2013-02-07 13:47:00,56.2,37.8,30.01,SE,135,0.0,1.8,50,0.00,,,0.00,WUHU216HW,2013-02-07 18:47:00,
2013-02-07 13:52:00,56.3,38.0,30.01,SE,135,0.9,3.1,50,0.00,,,0.00,WUHU216HW,2013-02-07 18:52:00,
2013-02-07 13:57:00,56.5,38.6,30.01,SE,135,2.7,3.4,51,0.00,,,0.00,WUHU216HW,2013-02-07 18:57:00,
2013-02-07 14:02:00,56.5,38.6,30.01,SE,135,0.7,3.4,51,0.00,,,0.00,WUHU216HW,2013-02-07 19:02:00,
2013-02-07 14:07:00,56.7,38.8,30.01,West,270,0.2,2.7,51,0.00,,,0.00,WUHU216HW,2013-02-07 19:07:00,
2013-02-07 14:12:00,56.5,38.6,30.01,ESE,113,3.4,3.4,51,0.00,,,0.00,WUHU216HW,2013-02-07 19:12:00,
2013-02-07 14:17:00,56.7,38.8,30.00,SSE,158,1.3,4.5,51,0.00,,,0.00,WUHU216HW,2013-02-07 19:17:00,
2013-02-07 14:22:00,56.7,38.8,30.00,SE,135,0.4,4.5,51,0.00,,,0.00,WUHU216HW,2013-02-07 19:22:00,
2013-02-07 14:27:00,56.5,38.2,30.00,ESE,113,4.7,5.6,50,0.00,,,0.00,WUHU216HW,2013-02-07 19:27:00,
2013-02-07 14:32:00,56.5,38.2,29.99,SSE,158,2.7,5.6,50,0.00,,,0.00,WUHU216HW,2013-02-07 19:32:00,
2013-02-07 14:37:00,56.5,38.2,29.99,SE,135,2.2,4.7,50,0.00,,,0.00,WUHU216HW,2013-02-07 19:37:00,
2013-02-07 14:42:00,56.5,38.6,29.99,SE,135,1.1,2.7,51,0.00,,,0.00,WUHU216HW,2013-02-07 19:42:00,
2013-02-07 14:47:00,56.5,38.2,29.99,SE,135,2.5,3.6,50,0.00,,,0.00,WUHU216HW,2013-02-07 19:47:00,
2013-02-07 14:52:00,56.3,38.4,29.99,SE,135,0.9,3.6,51,0.00,,,0.00,WUHU216HW,2013-02-07 19:52:00,
2013-02-07 14:57:00,56.3,38.4,29.99,SE,135,3.4,5.1,51,0.00,,,0.00,WUHU216HW,2013-02-07 19:57:00,
2013-02-07 15:02:00,56.2,37.8,29.99,SE,135,5.6,5.6,50,0.00,,,0.00,WUHU216HW,2013-02-07 20:02:00,
2013-02-07 15:07:00,56.0,37.6,29.99,SE,135,1.8,5.6,50,0.00,,,0.00,WUHU216HW,2013-02-07 20:07:00,
2013-02-07 15:12:00,55.8,37.4,29.99,SE,135,1.1,5.1,50,0.00,,,0.00,WUHU216HW,2013-02-07 20:12:00,
2013-02-07 15:17:00,55.8,37.4,29.99,SE,135,3.4,4.7,50,0.00,,,0.00,WUHU216HW,2013-02-07 20:17:00,
2013-02-07 15:22:00,55.8,37.9,29.99,ESE,113,2.5,4.7,51,0.00,,,0.00,WUHU216HW,2013-02-07 20:22:00,
2013-02-07 15:27:00,55.8,37.9,29.98,SSW,203,2.2,4.0,51,0.00,,,0.00,WUHU216HW,2013-02-07 20:27:00,
2013-02-07 15:32:00,56.0,38.5,29.98,South,180,4.0,4.0,52,0.00,,,0.00,WUHU216HW,2013-02-07 20:32:00,
2013-02-07 15:37:00,56.0,39.1,29.98,SE,135,1.1,4.7,53,0.00,,,0.00,WUHU216HW,2013-02-07 20:37:00,
2013-02-07 15:42:00,56.0,39.5,29.98,SE,135,2.5,4.7,54,0.00,,,0.00,WUHU216HW,2013-02-07 20:42:00,
2013-02-07 15:47:00,55.8,39.8,29.98,SW,225,1.8,4.7,55,0.00,,,0.00,WUHU216HW,2013-02-07 20:47:00,
2013-02-07 15:52:00,55.6,39.6,29.98,SSW,203,2.5,4.7,55,0.00,,,0.00,WUHU216HW,2013-02-07 20:52:00,
2013-02-07 15:57:00,55.4,39.9,29.98,East,90,2.2,5.4,56,0.00,,,0.00,WUHU216HW,2013-02-07 20:57:00,
2013-02-07 16:02:00,55.1,39.6,29.98,SE,135,4.3,5.4,56,0.00,,,0.00,WUHU216HW,2013-02-07 21:02:00,
2013-02-07 16:07:00,55.1,40.1,29.98,South,180,1.6,7.6,57,0.00,,,0.00,WUHU216HW,2013-02-07 21:07:00,
2013-02-07 16:12:00,54.7,39.7,29.98,SW,225,2.7,7.6,57,0.00,,,0.00,WUHU216HW,2013-02-07 21:12:00,
2013-02-07 16:17:00,54.5,39.5,29.98,South,180,3.4,6.9,57,0.00,,,0.00,WUHU216HW,2013-02-07 21:17:00,
2013-02-07 16:22:00,54.4,39.4,29.98,SSE,158,2.9,6.9,57,0.00,,,0.00,WUHU216HW,2013-02-07 21:22:00,
2013-02-07 16:27:00,54.4,39.9,29.98,ESE,113,0.7,5.1,58,0.00,,,0.00,WUHU216HW,2013-02-07 21:27:00,
2013-02-07 16:32:00,54.2,39.7,29.98,SSE,158,3.4,4.3,58,0.00,,,0.00,WUHU216HW,2013-02-07 21:32:00,
2013-02-07 16:37:00,54.0,40.0,29.98,SSE,158,1.3,4.3,59,0.00,,,0.00,WUHU216HW,2013-02-07 21:37:00,
2013-02-07 16:42:00,53.8,39.9,29.98,SSW,203,1.1,4.3,59,0.00,,,0.00,WUHU216HW,2013-02-07 21:42:00,
2013-02-07 16:47:00,53.8,39.9,29.98,SE,135,2.7,3.4,59,0.00,,,0.00,WUHU216HW,2013-02-07 21:47:00,
2013-02-07 16:52:00,53.6,40.1,29.98,SE,135,0.4,5.8,60,0.00,,,0.00,WUHU216HW,2013-02-07 21:52:00,
2013-02-07 16:57:00,53.5,40.0,29.98,SE,135,0.4,5.8,60,0.00,,,0.00,WUHU216HW,2013-02-07 21:57:00,
2013-02-07 17:02:00,53.3,40.1,29.97,SSE,158,2.5,4.5,61,0.00,,,0.00,WUHU216HW,2013-02-07 22:02:00,
2013-02-07 17:07:00,52.9,39.8,29.98,SSE,158,1.6,3.4,61,0.00,,,0.00,WUHU216HW,2013-02-07 22:07:00,
2013-02-07 17:12:00,52.9,40.2,29.98,SE,135,1.1,3.6,62,0.00,,,0.00,WUHU216HW,2013-02-07 22:12:00,
2013-02-07 17:17:00,52.6,40.3,29.97,SE,135,1.3,3.6,63,0.00,,,0.00,WUHU216HW,2013-02-07 22:17:00,
2013-02-07 17:22:00,52.4,40.2,29.98,SE,135,1.1,3.4,63,0.00,,,0.00,WUHU216HW,2013-02-07 22:22:00,
2013-02-07 17:27:00,52.2,40.0,29.97,SE,135,2.9,2.9,63,0.00,,,0.00,WUHU216HW,2013-02-07 22:27:00,
2013-02-07 17:32:00,52.0,40.1,29.97,SSE,158,2.9,2.9,64,0.00,,,0.00,WUHU216HW,2013-02-07 22:32:00,
2013-02-07 17:37:00,51.7,39.9,29.97,SE,135,2.9,3.8,64,0.00,,,0.00,WUHU216HW,2013-02-07 22:37:00,
2013-02-07 17:42:00,51.5,39.7,29.97,SE,135,0.7,3.8,64,0.00,,,0.00,WUHU216HW,2013-02-07 22:42:00,
2013-02-07 17:47:00,51.5,40.1,29.97,SE,135,2.0,2.9,65,0.00,,,0.00,WUHU216HW,2013-02-07 22:47:00,
2013-02-07 17:52:00,51.3,39.9,29.97,ESE,113,2.5,4.7,65,0.00,,,0.00,WUHU216HW,2013-02-07 22:52:00,
2013-02-07 17:57:00,50.9,40.0,29.98,ENE,68,0.4,4.7,66,0.00,,,0.00,WUHU216HW,2013-02-07 22:57:00,
2013-02-07 18:02:00,50.8,39.8,29.98,ESE,113,3.4,4.0,66,0.00,,,0.00,WUHU216HW,2013-02-07 23:02:00,
2013-02-07 18:07:00,50.6,40.1,29.98,SE,135,4.9,4.9,67,0.00,,,0.00,WUHU216HW,2013-02-07 23:07:00,
2013-02-07 18:12:00,50.2,39.7,29.98,SSE,158,1.8,4.9,67,0.00,,,0.00,WUHU216HW,2013-02-07 23:12:00,
2013-02-07 18:17:00,49.9,39.7,29.98,SE,135,3.4,4.9,68,0.00,,,0.00,WUHU216HW,2013-02-07 23:17:00,
2013-02-07 18:22:00,49.7,39.5,29.98,SE,135,2.7,4.0,68,0.00,,,0.00,WUHU216HW,2013-02-07 23:22:00,
2013-02-07 18:27:00,49.5,39.3,29.98,SSE,158,0.9,3.6,68,0.00,,,0.00,WUHU216HW,2013-02-07 23:27:00,
2013-02-07 18:32:00,49.3,39.6,29.98,SE,135,2.7,2.7,69,0.00,,,0.00,WUHU216HW,2013-02-07 23:32:00,
2013-02-07 18:37:00,49.1,39.4,29.98,SE,135,2.5,5.1,69,0.00,,,0.00,WUHU216HW,2013-02-07 23:37:00,
2013-02-07 18:42:00,49.0,39.3,29.98,SSE,158,3.8,5.1,69,0.00,,,0.00,WUHU216HW,2013-02-07 23:42:00,
2013-02-07 18:47:00,48.8,39.4,29.98,SE,135,3.8,4.7,70,0.00,,,0.00,WUHU216HW,2013-02-07 23:47:00,
2013-02-07 18:52:00,48.6,39.6,29.98,SSE,158,3.4,5.4,71,0.00,,,0.00,WUHU216HW,2013-02-07 23:52:00,
2013-02-07 18:57:00,48.4,39.4,29.98,SE,135,4.5,5.4,71,0.00,,,0.00,WUHU216HW,2013-02-07 23:57:00,
2013-02-07 19:02:00,48.2,39.6,29.97,SE,135,2.5,4.7,72,0.00,,,0.00,WUHU216HW,2013-02-08 00:02:00,
2013-02-07 19:07:00,48.1,39.4,29.97,ENE,68,3.6,4.7,72,0.00,,,0.00,WUHU216HW,2013-02-08 00:07:00,
2013-02-07 19:12:00,47.9,39.2,29.97,SE,135,3.8,6.3,72,0.00,,,0.00,WUHU216HW,2013-02-08 00:12:00,
2013-02-07 19:17:00,47.9,39.6,29.97,South,180,4.5,6.3,73,0.00,,,0.00,WUHU216HW,2013-02-08 00:17:00,
2013-02-07 19:22:00,47.7,39.4,29.97,ESE,113,3.1,5.8,73,0.00,,,0.00,WUHU216HW,2013-02-08 00:22:00,
2013-02-07 19:27:00,47.5,39.6,29.97,ESE,113,4.9,6.7,74,0.00,,,0.00,WUHU216HW,2013-02-08 00:27:00,
2013-02-07 19:32:00,47.5,39.6,29.97,SE,135,2.9,6.7,74,0.00,,,0.00,WUHU216HW,2013-02-08 00:32:00,
2013-02-07 19:37:00,47.5,40.0,29.96,SSE,158,2.2,5.4,75,0.00,,,0.00,WUHU216HW,2013-02-08 00:37:00,
2013-02-07 19:42:00,47.5,40.0,29.96,SE,135,3.8,5.6,75,0.00,,,0.00,WUHU216HW,2013-02-08 00:42:00,
2013-02-07 19:47:00,47.5,40.0,29.96,SSE,158,0.9,5.6,75,0.00,,,0.00,WUHU216HW,2013-02-08 00:47:00,
2013-02-07 19:52:00,47.5,40.0,29.96,South,180,1.1,4.0,75,0.00,,,0.00,WUHU216HW,2013-02-08 00:52:00,
2013-02-07 19:57:00,47.5,40.0,29.96,SE,135,5.1,6.0,75,0.00,,,0.00,WUHU216HW,2013-02-08 00:57:00,
2013-02-07 20:02:00,47.5,40.0,29.96,SE,135,4.7,6.0,75,0.00,,,0.00,WUHU216HW,2013-02-08 01:02:00,
2013-02-07 20:07:00,47.5,40.0,29.96,SE,135,2.2,5.1,75,0.00,,,0.00,WUHU216HW,2013-02-08 01:07:00,
2013-02-07 20:13:00,47.5,40.0,29.96,SSE,158,2.0,4.3,75,0.00,,,0.00,WUHU216HW,2013-02-08 01:13:00,
2013-02-07 20:18:00,47.5,40.0,29.96,South,180,4.0,4.3,75,0.00,,,0.00,WUHU216HW,2013-02-08 01:18:00,
2013-02-07 20:23:00,47.5,40.0,29.96,South,180,4.0,4.0,75,0.00,,,0.00,WUHU216HW,2013-02-08 01:23:00,
2013-02-07 20:44:00,47.5,40.0,29.97,SE,135,2.9,2.9,75,0.00,,,0.00,WUHU216HW,2013-02-08 01:44:00,
2013-02-07 20:49:00,47.5,40.0,29.97,SE,135,2.9,2.9,75,0.00,,,0.00,WUHU216HW,2013-02-08 01:49:00,
2013-02-07 20:58:00,47.3,39.8,29.96,SSE,158,2.5,2.5,75,0.00,,,0.00,WUHU216HW,2013-02-08 01:58:00,
2013-02-07 21:03:00,47.2,40.0,29.95,SSW,203,2.0,4.3,76,0.00,,,0.00,WUHU216HW,2013-02-08 02:03:00,
2013-02-07 21:08:00,47.0,39.8,29.95,SE,135,2.5,5.4,76,0.00,,,0.00,WUHU216HW,2013-02-08 02:08:00,
2013-02-07 21:13:00,46.8,40.0,29.95,ESE,113,4.0,5.4,77,0.00,,,0.00,WUHU216HW,2013-02-08 02:13:00,
2013-02-07 21:18:00,46.8,40.0,29.95,SE,135,6.9,6.9,77,0.00,,,0.00,WUHU216HW,2013-02-08 02:18:00,
2013-02-07 21:23:00,46.6,40.1,29.95,SE,135,4.0,6.9,78,0.00,,,0.00,WUHU216HW,2013-02-08 02:23:00,
2013-02-07 21:28:00,46.6,40.1,29.95,SE,135,4.0,6.9,78,0.00,,,0.00,WUHU216HW,2013-02-08 02:28:00,
2013-02-07 21:33:00,46.6,40.1,29.95,SE,135,2.5,4.0,78,0.00,,,0.00,WUHU216HW,2013-02-08 02:33:00,
2013-02-07 21:38:00,46.6,40.1,29.95,SE,135,1.8,4.0,78,0.00,,,0.00,WUHU216HW,2013-02-08 02:38:00,
2013-02-07 21:43:00,46.6,40.1,29.95,SSE,158,1.6,4.0,78,0.00,,,0.00,WUHU216HW,2013-02-08 02:43:00,
2013-02-07 21:48:00,46.6,40.1,29.95,ESE,113,1.6,2.7,78,0.00,,,0.00,WUHU216HW,2013-02-08 02:48:00,
2013-02-07 21:53:00,46.6,40.1,29.95,South,180,0.0,2.0,78,0.00,,,0.00,WUHU216HW,2013-02-08 02:53:00,
2013-02-07 21:58:00,46.6,40.1,29.95,East,90,0.0,2.0,78,0.00,,,0.00,WUHU216HW,2013-02-08 02:58:00,
2013-02-07 22:03:00,46.6,40.1,29.95,ENE,68,0.0,1.8,78,0.00,,,0.00,WUHU216HW,2013-02-08 03:03:00,
2013-02-07 22:08:00,46.4,40.0,29.95,South,180,0.4,1.1,78,0.00,,,0.00,WUHU216HW,2013-02-08 03:08:00,
2013-02-07 22:13:00,46.4,40.0,29.95,SE,135,0.4,1.8,78,0.00,,,0.00,WUHU216HW,2013-02-08 03:13:00,
2013-02-07 22:18:00,46.4,40.0,29.94,South,180,1.1,2.5,78,0.00,,,0.00,WUHU216HW,2013-02-08 03:18:00,
2013-02-07 22:23:00,46.4,40.0,29.94,SSE,158,0.4,2.5,78,0.00,,,0.00,WUHU216HW,2013-02-08 03:23:00,
2013-02-07 22:28:00,46.4,40.0,29.94,SE,135,0.0,1.8,78,0.00,,,0.00,WUHU216HW,2013-02-08 03:28:00,
2013-02-07 22:33:00,46.3,39.8,29.94,SW,225,0.0,1.8,78,0.00,,,0.00,WUHU216HW,2013-02-08 03:33:00,
2013-02-07 22:38:00,46.3,39.8,29.94,ESE,113,0.0,0.9,78,0.00,,,0.00,WUHU216HW,2013-02-08 03:38:00,
2013-02-07 22:43:00,46.3,39.8,29.94,NNE,23,0.2,0.7,78,0.00,,,0.00,WUHU216HW,2013-02-08 03:43:00,
2013-02-07 22:48:00,46.1,39.6,29.94,NNE,23,0.2,0.9,78,0.00,,,0.00,WUHU216HW,2013-02-08 03:48:00,
2013-02-07 22:53:00,46.1,39.6,29.93,ENE,68,0.0,1.1,78,0.00,,,0.00,WUHU216HW,2013-02-08 03:53:00,
2013-02-07 22:59:00,46.1,39.6,29.93,SSE,158,0.0,1.1,78,0.00,,,0.00,WUHU216HW,2013-02-08 03:59:00,
2013-02-07 23:04:00,46.1,39.6,29.93,WSW,248,0.4,0.7,78,0.00,,,0.00,WUHU216HW,2013-02-08 04:04:00,
2013-02-07 23:09:00,46.1,39.6,29.93,West,270,0.0,0.4,78,0.00,,,0.00,WUHU216HW,2013-02-08 04:09:00,
2013-02-07 23:14:00,46.1,39.3,29.93,ENE,68,0.4,1.1,77,0.00,,,0.00,WUHU216HW,2013-02-08 04:14:00,
2013-02-07 23:19:00,46.1,39.3,29.93,NE,45,1.6,1.6,77,0.00,,,0.00,WUHU216HW,2013-02-08 04:19:00,
2013-02-07 23:24:00,46.1,39.3,29.93,NE,45,1.1,1.6,77,0.00,,,0.00,WUHU216HW,2013-02-08 04:24:00,
2013-02-07 23:29:00,46.1,39.3,29.92,NNE,23,0.7,1.6,77,0.00,,,0.00,WUHU216HW,2013-02-08 04:29:00,
2013-02-07 23:34:00,46.1,39.3,29.92,NNE,23,1.8,2.5,77,0.00,,,0.00,WUHU216HW,2013-02-08 04:34:00,
2013-02-07 23:39:00,46.1,39.3,29.91,SE,135,1.1,2.5,77,0.00,,,0.00,WUHU216HW,2013-02-08 04:39:00,
2013-02-07 23:44:00,46.1,39.3,29.91,SSE,158,1.3,2.2,77,0.00,,,0.00,WUHU216HW,2013-02-08 04:44:00,
2013-02-07 23:49:00,46.1,39.3,29.92,SE,135,0.9,2.2,77,0.00,,,0.00,WUHU216HW,2013-02-08 04:49:00,
2013-02-07 23:54:00,46.1,39.3,29.92,SSE,158,0.4,2.2,77,0.00,,,0.00,WUHU216HW,2013-02-08 04:54:00,
2013-02-07 23:59:00,46.1,39.3,29.91,SE,135,1.1,1.6,77,0.00,,,0.00,WUHU216HW,2013-02-08 04:59:00,